Date,TemperatureHighF,TemperatureAvgF,TemperatureLowF,DewpointHighF,DewpointAvgF,DewpointLowF,HumidityHigh,HumidityAvg,HumidityLow,PressureMaxIn,PressureMinIn,WindSpeedMaxMPH,WindSpeedAvgMPH,GustSpeedMaxMPH,PrecipitationSumIn
2013-11-1,60.9,52.6,44.2,43.7,39.5,36.8,77,62,49,29.06,28.89,17,2,17,0.00
2013-11-2,56.3,44.2,31.6,40.2,34.3,27.0,85,70,45,29.27,29.05,15,2,15,0.00
2013-11-3,55.9,36.0,28.2,39.9,30.0,24.8,90,80,52,29.23,29.15,13,1,13,0.00
2013-11-4,60.4,53.7,49.6,47.4,44.0,41.1,75,70,61,29.13,28.96,12,4,12,0.02
2013-11-5,59.5,58.0,47.6,57.3,55.6,44.6,93,92,89,28.99,28.93,9,2,9,0.00
2013-11-6,47.6,38.5,29.3,44.6,33.4,26.2,90,82,69,29.40,28.99,20,3,20,0.00
2013-11-7,57.0,39.1,26.4,41.1,30.1,23.7,91,73,44,29.45,29.38,14,1,14,0.00
2013-11-8,65.4,47.9,28.0,41.5,33.8,24.2,88,61,34,29.39,28.96,20,3,20,0.00
2013-11-9,66.7,48.5,35.4,44.0,34.9,28.8,84,62,37,29.35,29.05,11,0,11,0.00
2013-11-10,62.0,48.8,35.2,38.4,34.0,29.0,81,58,37,29.46,29.27,15,1,15,0.00
2013-11-11,65.1,48.8,0.0,51.5,39.5,-5.0,85,70,60,29.58,29.22,22,4,22,0.00
2013-11-12,28.7,11.9,0.0,14.7,4.4,-9.9,63,59,51,29.88,29.69,21,9,21,0.00
2013-11-13,48.9,39.0,29.3,22.9,20.9,18.3,64,49,32,29.61,29.24,13,4,13,0.00
2013-11-14,56.1,42.7,0.0,32.1,25.3,-18.3,60,49,38,29.24,29.03,60,3,60,0.00
2013-11-15,61.5,48.9,0.0,44.3,37.2,-9.2,82,64,51,29.04,28.81,11,2,11,0.00
2013-11-16,70.7,61.6,49.6,59.0,54.6,44.3,85,78,63,28.82,28.51,63,8,63,0.00
2013-11-17,68.3,57.5,0.0,59.7,39.6,-29.0,83,55,22,29.15,28.43,20,4,20,0.00
2013-11-18,64.5,43.2,29.3,43.4,28.3,20.1,84,58,31,29.35,29.14,10,0,10,0.00
2013-11-19,62.2,46.5,29.1,35.9,27.6,21.6,76,51,29,29.31,29.05,21,4,21,0.00
2013-11-20,50.1,46.0,40.2,38.5,32.2,21.6,79,61,34,29.06,28.93,18,3,18,0.00
2013-11-21,49.6,40.9,0.0,45.9,35.8,-3.0,90,83,71,29.37,29.02,19,3,19,0.02
2013-11-22,30.7,26.4,23.5,24.5,21.5,18.8,86,81,77,29.66,29.49,21,5,21,0.00
2013-11-23,30.2,23.3,14.1,18.8,12.3,5.1,82,64,43,29.81,29.64,21,5,21,0.00
2013-11-24,29.4,20.1,9.6,14.3,9.3,3.5,79,63,49,29.78,29.38,8,0,8,0.00
2013-11-25,40.6,30.1,19.9,22.7,17.9,13.8,80,61,48,29.38,29.22,8,0,8,0.00
2013-11-26,39.3,28.4,17.4,27.0,18.4,7.7,86,67,44,29.46,29.21,30,5,30,0.00
2013-11-27,36.6,23.2,11.8,15.0,10.5,0.0,76,60,39,29.49,29.24,8,0,8,0.00
2013-11-28,43.8,30.2,20.1,24.9,17.8,12.7,74,61,46,29.52,29.21,12,1,12,0.00
2013-11-29,53.7,41.8,30.7,31.6,26.2,19.9,70,54,42,29.51,29.31,6,0,6,0.00
2013-11-30,58.2,43.4,33.8,39.3,30.6,21.9,75,61,48,29.30,29.14,6,0,6,0.00